 day,  time,  air_temp(C),  RH(%),  ground_temp10cm(C),  ground_temp20cm(C),  ground_temp40cm(C),  precipitation(mm/h),  Solar_Radiation(MJ/m2h),  lack, 
 08/01/01, 01:00,  -7.6,  93,   0.9,   1.7,   3.1,   3.5,  0.00, 
 08/01/01, 02:00,  -7.6,  93,   0.9,   1.7,   3.1,   3.0,  0.00, 
 08/01/01, 03:00,  -7.6,  94,   0.9,   1.7,   3.1,   2.0,  0.00, 
 08/01/01, 04:00,  -7.7,  93,   0.9,   1.7,   3.1,   2.5,  0.00, 
 08/01/01, 05:00,  -7.9,  93,   0.9,   1.7,   3.1,   1.0,  0.00, 
 08/01/01, 06:00,  -7.9,  93,   0.9,   1.7,   3.1,   1.0,  0.00, 
 08/01/01, 07:00,  -7.8,  93,   0.9,   1.7,   3.1,   0.5,  0.00, 
 08/01/01, 08:00,  -7.7,  93,   0.9,   1.7,   3.1,   1.0,  0.00, 
 08/01/01, 09:00,  -7.3,  93,   0.9,   1.7,   3.1,   1.0,  0.03, 
 08/01/01, 10:00,  -7.1,  93,   0.9,   1.7,   3.1,   1.5,  0.07, 
 08/01/01, 11:00,  -6.7,  93,   1.0,   1.7,   3.1,   1.0,  0.13, 
 08/01/01, 12:00,  -6.5,  96,   1.0,   1.7,   3.1,   0.5,  0.16, 
 08/01/01, 13:00,  -6.3,  94,   1.0,   1.7,   3.1,   1.0,  0.18, 
 08/01/01, 14:00,  -6.0,  95,   1.0,   1.7,   3.1,   1.0,  0.38, 
 08/01/01, 15:00,  -6.4,  92,   1.0,   1.7,   3.1,   0.5,  0.14, 
 08/01/01, 16:00,  -6.7,  93,   1.0,   1.7,   3.1,   1.0,  0.09, 
 08/01/01, 17:00,  -7.2,  92,   1.0,   1.7,   3.0,   1.0,  0.01, 
 08/01/01, 18:00,  -7.3,  92,   1.0,   1.7,   3.1,   1.0,  0.00, 
 08/01/01, 19:00,  -7.5,  90,   1.0,   1.7,   3.0,   0.5,  0.00, 
 08/01/01, 20:00,  -7.8,  90,   1.0,   1.7,   3.0,   0.0,  0.00, 
 08/01/01, 21:00,  -7.9,  88,   1.0,   1.6,   3.0,   0.5,  0.00, 
 08/01/01, 22:00,  -7.8,  88,   1.0,   1.7,   3.1,   0.0,  0.00, 
 08/01/01, 23:00,  -7.8,  88,   1.0,   1.7,   3.1,   0.0,  0.00, 
 08/01/02, 00:00,  -8.1,  85,   1.0,   1.6,   3.0,   0.0,  0.00, 
 08/01/02, 01:00,  -8.0,  84,   1.0,   1.6,   3.0,   0.0,  0.00, 
 08/01/02, 02:00,  -7.7,  84,   1.0,   1.7,   3.0,   0.0,  0.00, 
 08/01/02, 03:00,  -7.7,  85,   1.0,   1.7,   3.1,   0.0,  0.00, 
 08/01/02, 04:00,  -7.2,  83,   1.0,   1.7,   3.0,   0.0,  0.00, 
 08/01/02, 05:00,  -7.2,  86,   1.0,   1.6,   3.0,   0.0,  0.00, 
 08/01/02, 06:00,  -7.3,  87,   1.0,   1.6,   3.0,   0.0,  0.00, 
 08/01/02, 07:00,  -7.1,  90,   1.0,   1.6,   3.0,   0.0,  0.00, 
 08/01/02, 08:00,  -7.2,  90,   1.0,   1.6,   3.0,   0.0,  0.03, 
 08/01/02, 09:00,  -6.7,  89,   1.0,   1.6,   3.0,   0.0,  0.20, 
 08/01/02, 10:00,  -6.1,  88,   1.0,   1.7,   3.1,   0.0,  0.37, 
 08/01/02, 11:00,  -6.1,  83,   1.0,   1.7,   3.0,   0.0,  0.64, 
 08/01/02, 12:00,  -5.3,  83,   1.0,   1.7,   3.1,   0.0,  0.95, 
 08/01/02, 13:00,  -5.3,  81,   1.0,   1.7,   3.1,   0.0,  1.49, 
 08/01/02, 14:00,  -5.2,  80,   1.0,   1.7,   3.0,   0.0,  1.37, 
 08/01/02, 15:00,  -5.1,  75,   1.0,   1.7,   3.0,   0.0,  1.48, 
 08/01/02, 16:00,  -5.4,  78,   1.0,   1.7,   3.0,   0.0,  0.37, 
 08/01/02, 17:00,  -6.5,  81,   1.0,   1.7,   3.1,   0.0,  0.09, 
 08/01/02, 18:00,  -6.7,  74,   1.0,   1.7,   3.0,   0.0,  0.00, 
 08/01/02, 19:00,  -7.2,  77,   1.0,   1.7,   3.0,   0.0,  0.00, 
 08/01/02, 20:00,  -6.5,  71,   1.0,   1.6,   3.0,   0.0,  0.00, 
 08/01/02, 21:00,  -7.0,  75,   1.0,   1.7,   3.1,   0.0,  0.00, 
 08/01/02, 22:00,  -6.9,  78,   1.0,   1.7,   2.9,   0.0,  0.00, 
 08/01/02, 23:00,  -7.1,  89,   1.0,   1.6,   2.9,   0.5,  0.00, 
 08/01/03, 00:00,  -7.2,  92,   1.0,   1.6,   3.0,   0.0,  0.00, 
 08/01/03, 01:00,  -6.0,  87,   1.0,   1.6,   2.9,   0.0,  0.00, 
 08/01/03, 02:00,  -5.7,  86,   1.0,   1.6,   2.9,   0.0,  0.00, 
 08/01/03, 03:00,  -6.0,  91,   1.0,   1.7,   2.9,   0.0,  0.00, 
 08/01/03, 04:00,  -5.6,  88,   1.0,   1.7,   2.9,   0.5,  0.00, 
 08/01/03, 05:00,  -6.6,  94,   1.0,   1.6,   2.9,   0.0,  0.00, 
 08/01/03, 06:00,  -5.6,  90,   1.0,   1.6,   2.9,   0.5,  0.00, 
 08/01/03, 07:00,  -6.5,  96,   1.0,   1.6,   2.9,   0.5,  0.00, 
 08/01/03, 08:00,  -6.3,  95,   1.0,   1.7,   2.9,   0.0,  0.02, 
 08/01/03, 09:00,  -5.0,  86,   1.0,   1.6,   2.9,   0.0,  0.16, 
 08/01/03, 10:00,  -3.8,  79,   1.0,   1.7,   2.9,   0.0,  0.33, 
 08/01/03, 11:00,  -3.1,  80,   1.0,   1.7,   2.9,   0.0,  0.52, 
 08/01/03, 12:00,  -3.0,  75,   1.0,   1.6,   2.9,   0.0,  0.83, 
 08/01/03, 13:00,  -2.5,  71,   1.0,   1.7,   2.9,   0.0,  1.10, 
 08/01/03, 14:00,  -2.1,  76,   1.0,   1.7,   3.0,   0.0,  0.83, 
 08/01/03, 15:00,  -3.2,  83,   1.0,   1.7,   2.9,   0.0,  0.39, 
 08/01/03, 16:00,  -3.3,  97,   1.0,   1.7,   3.0,   0.0,  0.32, 
 08/01/03, 17:00,  -3.8,  96,   1.0,   1.7,   3.0,   0.0,  0.05, 
 08/01/03, 18:00,  -4.3,  94,   1.0,   1.7,   2.9,   0.5,  0.00, 
 08/01/03, 19:00,  -4.2,  96,   1.0,   1.7,   2.9,   1.5,  0.00, 
 08/01/03, 20:00,  -4.2,  96,   1.1,   1.7,   2.9,   1.0,  0.00, 
 08/01/03, 21:00,  -4.3,  95,   1.0,   1.7,   3.0,   0.5,  0.00, 
 08/01/03, 22:00,  -4.3,  97,   1.0,   1.6,   2.9,   1.0,  0.00, 
 08/01/03, 23:00,  -4.7,  95,   1.1,   1.7,   2.9,   0.5,  0.00, 
 08/01/04, 00:00,  -5.0,  91,   1.1,   1.7,   2.9,   0.0,  0.00, 
 08/01/04, 01:00,  -5.1,  88,   1.1,   1.7,   2.9,   0.0,  0.00, 
 08/01/04, 02:00,  -5.2,  91,   1.1,   1.7,   2.9,   0.0,  0.00, 
 08/01/04, 03:00,  -5.2,  92,   1.1,   1.7,   2.9,   0.0,  0.00, 
 08/01/04, 04:00,  -5.0,  90,   1.1,   1.7,   2.9,   0.0,  0.00, 
 08/01/04, 05:00,  -5.1,  92,   1.0,   1.6,   2.9,   0.0,  0.00, 
 08/01/04, 06:00,  -4.9,  92,   1.1,   1.7,   2.9,   0.0,  0.00, 
 08/01/04, 07:00,  -4.8,  92,   1.0,   1.6,   2.9,   1.0,  0.00, 
 08/01/04, 08:00,  -4.6,  92,   1.1,   1.7,   3.0,   0.0,  0.00, 
 08/01/04, 09:00,  -3.9,  90,   1.1,   1.7,   2.9,   0.0,  0.11, 
 08/01/04, 10:00,  -4.0,  92,   1.1,   1.7,   3.0,   0.5,  0.16, 
 08/01/04, 11:00,  -3.0,  89,   1.1,   1.7,   2.9,   0.0,  0.38, 
 08/01/04, 12:00,  -2.9,  94,   1.1,   1.7,   2.9,   0.0,  0.44, 
 08/01/04, 13:00,  -3.2,  95,   1.1,   1.7,   2.9,   0.0,  0.27, 
 08/01/04, 14:00,  -3.0,  94,   1.1,   1.8,   2.9,   0.0,  0.37, 
 08/01/04, 15:00,  -3.4,  94,   1.1,   1.7,   2.9,   0.0,  0.17, 
 08/01/04, 16:00,  -4.4,  97,   1.1,   1.7,   2.9,   0.0,  0.07, 
 08/01/04, 17:00,  -5.3,  96,   1.1,   1.7,   2.9,   0.0,  0.03, 
 08/01/04, 18:00,  -5.4,  95,   1.1,   1.7,   2.9,   0.0,  0.00, 
 08/01/04, 19:00,  -5.8,  81,   1.1,   1.7,   3.0,   0.0,  0.00, 
 08/01/04, 20:00,  -7.1,  84,   1.1,   1.7,   3.0,   0.0,  0.00, 
 08/01/04, 21:00,  -6.7,  84,   1.1,   1.7,   3.0,   0.0,  0.00, 
 08/01/04, 22:00,  -8.7,  87,   1.1,   1.7,   2.9,   0.0,  0.00, 
 08/01/04, 23:00,  -8.5,  87,   1.1,   1.7,   2.9,   0.0,  0.00, 
 08/01/05, 00:00,  -7.6,  87,   1.1,   1.7,   2.9,   0.0,  0.00, 
 08/01/05, 01:00,  -7.1,  86,   1.1,   1.7,   2.9,   0.0,  0.00, 
 08/01/05, 02:00,  -5.2,  68,   1.0,   1.7,   2.9,   0.0,  0.00, 
 08/01/05, 03:00,  -4.4,  69,   1.1,   1.7,   2.9,   0.0,  0.00, 
 08/01/05, 04:00,  -5.6,  78,   1.0,   1.6,   2.9,   0.0,  0.00, 
 08/01/05, 05:00,  -5.1,  68,   1.1,   1.7,   2.9,   0.0,  0.00, 
 08/01/05, 06:00,  -5.6,  82,   1.0,   1.7,   3.0,   0.0,  0.00, 
 08/01/05, 07:00,  -6.1,  86,   1.0,   1.6,   2.9,   0.0,  0.00, 
 08/01/05, 08:00,  -5.9,  84,   1.0,   1.7,   2.9,   0.0,  0.02, 
 08/01/05, 09:00,  -3.4,  71,   1.1,   1.7,   2.9,   0.0,  0.16, 
 08/01/05, 10:00,  -1.5,  74,   1.1,   1.7,   3.0,   0.5,  0.43, 
 08/01/05, 11:00,  -1.6,  78,   1.1,   1.8,   3.0,   0.0,  0.89, 
 08/01/05, 12:00,  -0.4,  70,   1.1,   1.8,   3.0,   0.0,  1.30, 
 08/01/05, 13:00,  -1.0,  86,   1.1,   1.8,   3.0,   0.0,  0.86, 
 08/01/05, 14:00,  -0.6,  82,   1.1,   1.7,   3.0,   0.0,  0.83, 
 08/01/05, 15:00,  -0.8,  81,   1.1,   1.7,   3.0,   0.0,  0.59, 
 08/01/05, 16:00,  -1.7,  87,   1.1,   1.7,   2.9,   0.0,  0.19, 
 08/01/05, 17:00,  -2.2,  88,   1.1,   1.8,   2.9,   0.0,  0.05, 
 08/01/05, 18:00,  -2.5,  94,   1.1,   1.8,   3.0,   0.0,  0.00, 
 08/01/05, 19:00,  -2.4,  92,   1.1,   1.7,   3.0,   0.0,  0.00, 
 08/01/05, 20:00,  -2.4,  92,   1.1,   1.7,   2.9,   0.0,  0.00, 
 08/01/05, 21:00,  -1.9,  87,   1.1,   1.6,   2.9,   0.0,  0.00, 
 08/01/05, 22:00,  -2.7,  99,   1.1,   1.7,   2.9,   0.0,  0.00, 
 08/01/05, 23:00,  -1.9,  84,   1.1,   1.7,   2.9,   0.0,  0.00, 
 08/01/06, 00:00,  -2.0,  83,   1.1,   1.7,   3.0,   0.0,  0.00, 
 08/01/06, 01:00,  -2.0,  81,   1.1,   1.7,   3.0,   0.0,  0.00, 
 08/01/06, 02:00,  -2.3,  88,   1.1,   1.8,   2.9,   0.0,  0.00, 
 08/01/06, 03:00,  -2.0,  86,   1.1,   1.7,   3.0,   0.0,  0.00, 
 08/01/06, 04:00,  -2.9,  84,   1.1,   1.7,   3.0,   0.0,  0.00, 
 08/01/06, 05:00,  -3.1,  87,   1.1,   1.7,   2.9,   0.0,  0.00, 
 08/01/06, 06:00,  -3.3,  81,   1.1,   1.7,   3.0,   0.0,  0.00, 
 08/01/06, 07:00,  -2.6,  75,   1.0,   1.7,   2.9,   0.5,  0.00, 
 08/01/06, 08:00,  -2.6,  77,   1.1,   1.8,   2.9,   0.0,  0.07, 
 08/01/06, 09:00,  -2.1,  81,   1.1,   1.7,   2.9,   0.0,  0.86, 
 08/01/06, 10:00,   0.3,  78,   1.1,   1.7,   2.9,   0.0,  1.48, 
 08/01/06, 11:00,   0.6,  68,   1.1,   1.7,   2.9,   0.0,  1.99, 
 08/01/06, 12:00,   1.0,  68,   1.1,   1.7,   3.0,   0.0,  2.16, 
 08/01/06, 13:00,   1.5,  69,   1.1,   1.7,   3.0,   0.0,  2.07, 
 08/01/06, 14:00,   1.8,  79,   1.1,   1.7,   3.0,   0.0,  1.85, 
 08/01/06, 15:00,   0.7,  78,   1.1,   1.7,   3.0,   0.0,  0.87, 
 08/01/06, 16:00,   1.0,  83,   1.1,   1.8,   3.0,   0.0,  0.45, 
 08/01/06, 17:00,  -0.1,  87,   1.1,   1.8,   3.0,   0.0,  0.09, 
 08/01/06, 18:00,  -0.3,  89,   1.1,   1.8,   2.9,   0.0,  0.00, 
 08/01/06, 19:00,  -0.3,  88,   1.1,   1.7,   3.0,   0.0,  0.00, 
 08/01/06, 20:00,   0.4,  77,   1.1,   1.8,   3.0,   0.0,  0.00, 
 08/01/06, 21:00,   0.4,  83,   1.1,   1.7,   3.0,   0.0,  0.00, 
 08/01/06, 22:00,   0.0,  81,   1.1,   1.7,   3.0,   0.0,  0.00, 
 08/01/06, 23:00,  -0.2,  79,   1.1,   1.7,   3.0,   0.0,  0.00, 
 08/01/07, 00:00,  -0.4,  78,   1.1,   1.8,   3.0,   0.0,  0.00, 
 08/01/07, 01:00,  -1.1,  78,   1.1,   1.7,   3.0,   0.0,  0.00, 
 08/01/07, 02:00,  -1.9,  77,   1.1,   1.8,   3.0,   0.0,  0.00, 
 08/01/07, 03:00,  -0.4,  62,   1.1,   1.7,   3.0,   0.0,  0.00, 
 08/01/07, 04:00,  -1.3,  53,   1.1,   1.8,   2.9,   0.0,  0.00, 
 08/01/07, 05:00,   1.6,  29,   1.1,   1.7,   3.0,   0.0,  0.00, 
 08/01/07, 06:00,  -1.6,  52,   1.1,   1.7,   3.0,   0.0,  0.00, 
 08/01/07, 07:00,   1.4,  29,   1.1,   1.7,   2.9,   0.0,  0.00, 
 08/01/07, 08:00,   0.9,  40,   1.1,   1.7,   2.9,   0.0,  0.07, 
 08/01/07, 09:00,   0.6,  54,   1.1,   1.7,   3.0,   0.0,  0.42, 
 08/01/07, 10:00,   2.2,  56,   1.1,   1.7,   3.0,   0.0,  0.85, 
 08/01/07, 11:00,   1.9,  66,   1.2,   1.7,   3.0,   0.0,  1.17, 
 08/01/07, 12:00,   2.7,  46,   1.2,   1.7,   3.0,   0.0,  0.89, 
 08/01/07, 13:00,   3.7,  37,   1.2,   1.7,   3.0,   0.0,  1.02, 
 08/01/07, 14:00,   3.2,  53,   1.2,   1.9,   3.1,   0.0,  0.80, 
 08/01/07, 15:00,   2.5,  57,   1.2,   1.7,   3.0,   0.0,  0.58, 
 08/01/07, 16:00,   2.2,  53,   1.2,   1.7,   3.1,   0.0,  0.42, 
 08/01/07, 17:00,   0.8,  75,   1.2,   1.8,   3.1,   0.0,  0.05, 
 08/01/07, 18:00,  -0.2,  68,   1.2,   1.8,   3.1,   0.0,  0.00, 
 08/01/07, 19:00,  -1.8,  80,   1.2,   1.7,   3.0,   0.0,  0.00, 
 08/01/07, 20:00,  -2.4,  83,   1.2,   1.7,   3.1,   0.0,  0.00, 
 08/01/07, 21:00,  -0.9,  71,   1.2,   1.7,   3.0,   0.5,  0.00, 
 08/01/07, 22:00,  -3.7,  85,   1.2,   1.7,   3.0,   0.0,  0.00, 
 08/01/07, 23:00,  -0.9,  70,   1.1,   1.7,   3.0,   0.0,  0.00, 
 08/01/08, 00:00,  -0.4,  67,   1.1,   1.7,   3.0,   0.0,  0.00, 
 08/01/08, 01:00,  -2.1,  75,   1.0,   1.7,   3.0,   0.0,  0.00, 
 08/01/08, 02:00,  -1.5,  73,   1.0,   1.7,   3.0,   0.0,  0.00, 
 08/01/08, 03:00,  -1.6,  78,   1.0,   1.7,   3.0,   0.0,  0.00, 
 08/01/08, 04:00,  -1.8,  85,   1.0,   1.7,   3.0,   0.0,  0.00, 
 08/01/08, 05:00,  -1.0,  84,   1.0,   1.7,   3.0,   0.0,  0.00, 
 08/01/08, 06:00,  -1.1,  90,   1.0,   1.7,   2.9,   0.0,  0.00, 
 08/01/08, 07:00,  -1.1,  90,   1.0,   1.7,   3.0,   0.0,  0.00, 
 08/01/08, 08:00,  -0.3,  83,   1.0,   1.7,   3.0,   0.0,  0.02, 
 08/01/08, 09:00,   0.0,  76,   1.0,   1.7,   3.0,   0.0,  0.12, 
 08/01/08, 10:00,   0.5,  73,   1.0,   1.7,   3.0,   0.0,  0.22, 
 08/01/08, 11:00,  -1.0,  96,   1.0,   1.7,   3.0,   0.0,  0.30, 
 08/01/08, 12:00,   0.0,  80,   1.0,   1.7,   3.0,   0.0,  0.46, 
 08/01/08, 13:00,  -0.7,  91,   1.0,   1.7,   3.0,   0.0,  0.26, 
 08/01/08, 14:00,  -0.9,  99,   1.0,   1.7,   3.0,   0.0,  0.20, 
 08/01/08, 15:00,   0.0,  91,   1.0,   1.7,   3.0,   0.0,  0.27, 
 08/01/08, 16:00,  -0.7,  97,   1.0,   1.7,   3.0,   0.0,  0.12, 
 08/01/08, 17:00,  -0.9,  98,   1.0,   1.7,   3.0,   0.0,  0.03, 
 08/01/08, 18:00,  -1.0,  95,   1.0,   1.7,   3.0,   0.5,  0.00, 
 08/01/08, 19:00,  -0.9,  88,   1.0,   1.7,   3.0,   0.0,  0.00, 
 08/01/08, 20:00,  -0.9,  87,   1.0,   1.7,   3.0,   0.0,  0.00, 
 08/01/08, 21:00,  -0.6,  81,   1.0,   1.7,   3.0,   0.0,  0.00, 
 08/01/08, 22:00,  -1.0,  84,   1.0,   1.7,   3.0,   0.0,  0.00, 
 08/01/08, 23:00,  -0.8,  75,   1.0,   1.7,   3.0,   0.0,  0.00, 
 08/01/09, 00:00,  -1.6,  87,   1.0,   1.7,   3.0,   0.0,  0.00, 
 08/01/09, 01:00,  -2.1,  91,   1.0,   1.7,   2.9,   0.0,  0.00, 
 08/01/09, 02:00,  -1.5,  80,   1.0,   1.7,   2.9,   0.0,  0.00, 
 08/01/09, 03:00,  -2.4,  88,   1.0,   1.7,   2.9,   0.0,  0.00, 
 08/01/09, 04:00,  -2.2,  91,   1.0,   1.7,   2.9,   0.0,  0.00, 
 08/01/09, 05:00,  -1.8,  87,   1.0,   1.7,   2.9,   0.0,  0.00, 
 08/01/09, 06:00,  -1.6,  87,   1.0,   1.7,   2.9,   0.0,  0.00, 
 08/01/09, 07:00,  -1.6,  86,   1.0,   1.7,   2.9,   0.0,  0.00, 
 08/01/09, 08:00,  -1.6,  82,   1.0,   1.7,   2.9,   0.0,  0.04, 
 08/01/09, 09:00,  -0.8,  67,   1.0,   1.7,   2.9,   0.0,  0.67, 
 08/01/09, 10:00,   0.3,  79,   1.0,   1.7,   2.9,   0.0,  1.34, 
 08/01/09, 11:00,   0.1,  60,   1.1,   1.7,   2.9,   0.0,  1.85, 
 08/01/09, 12:00,   0.3,  57,   1.1,   1.8,   2.9,   0.0,  1.82, 
 08/01/09, 13:00,   0.5,  61,   1.1,   1.7,   2.9,   0.0,  1.12, 
 08/01/09, 14:00,   0.6,  61,   1.1,   1.8,   2.9,   0.5,  1.45, 
 08/01/09, 15:00,   0.9,  64,   1.1,   1.8,   2.9,   0.0,  0.78, 
 08/01/09, 16:00,   0.0,  63,   1.1,   1.8,   2.9,   0.0,  0.41, 
 08/01/09, 17:00,  -1.1,  68,   1.1,   1.7,   2.9,   0.0,  0.11, 
 08/01/09, 18:00,  -1.7,  70,   1.1,   1.7,   2.9,   0.0,  0.00, 
 08/01/09, 19:00,  -2.6,  76,   1.1,   1.7,   2.9,   0.0,  0.00, 
 08/01/09, 20:00,  -2.2,  77,   1.1,   1.7,   2.9,   0.0,  0.00, 
 08/01/09, 21:00,  -2.8,  82,   1.1,   1.7,   2.9,   0.0,  0.00, 
 08/01/09, 22:00,  -2.9,  77,   1.1,   1.7,   2.9,   0.0,  0.00, 
 08/01/09, 23:00,  -3.4,  80,   1.1,   1.7,   2.9,   0.0,  0.00, 
 08/01/10, 00:00,  -4.2,  83,   1.0,   1.7,   2.9,   0.0,  0.00, 
 08/01/10, 01:00,  -3.9,  92,   1.1,   1.7,   2.9,   0.0,  0.00, 
 08/01/10, 02:00,  -3.9,  89,   1.1,   1.7,   2.9,   0.0,  0.00, 
 08/01/10, 03:00,  -3.8,  86,   1.0,   1.7,   2.9,   0.0,  0.00, 
 08/01/10, 04:00,  -4.1,  83,   1.0,   1.7,   2.9,   0.0,  0.00, 
 08/01/10, 05:00,  -4.3,  78,   1.0,   1.7,   2.9,   0.0,  0.00, 
 08/01/10, 06:00,  -4.0,  72,   1.0,   1.7,   2.9,   0.0,  0.00, 
 08/01/10, 07:00,  -4.6,  75,   1.0,   1.7,   2.9,   0.0,  0.00, 
 08/01/10, 08:00,  -4.3,  69,   1.0,   1.7,   2.9,   0.0,  0.07, 
 08/01/10, 09:00,  -2.3,  56,   1.0,   1.7,   2.9,   0.0,  0.62, 
 08/01/10, 10:00,  -1.3,  51,   1.0,   1.7,   2.9,   0.0,  1.06, 
 08/01/10, 11:00,  -0.7,  48,   1.0,   1.6,   2.9,   0.0,  1.32, 
 08/01/10, 12:00,   0.0,  38,   1.0,   1.6,   2.9,   0.0,  1.97, 
 08/01/10, 13:00,   0.7,  50,   1.1,   1.6,   2.9,   0.0,  1.74, 
 08/01/10, 14:00,   1.2,  54,   1.1,   1.6,   2.9,   0.0,  1.43, 
 08/01/10, 15:00,   1.0,  43,   1.0,   1.6,   2.9,   0.0,  1.00, 
 08/01/10, 16:00,   0.8,  54,   1.1,   1.6,   2.9,   0.0,  0.59, 
 08/01/10, 17:00,  -0.7,  55,   1.0,   1.6,   2.9,   0.0,  0.15, 
 08/01/10, 18:00,  -1.9,  62,   1.0,   1.6,   2.9,   0.0,  0.00, 
 08/01/10, 19:00,  -2.3,  63,   1.0,   1.6,   2.9,   0.0,  0.00, 
 08/01/10, 20:00,  -2.6,  64,   1.0,   1.6,   2.9,   0.0,  0.00, 
 08/01/10, 21:00,  -2.7,  63,   1.0,   1.6,   2.9,   0.0,  0.00, 
 08/01/10, 22:00,  -3.4,  66,   1.0,   1.6,   2.9,   0.0,  0.00, 
 08/01/10, 23:00,  -3.7,  72,   1.0,   1.6,   2.9,   0.0,  0.00, 
 08/01/11, 00:00,  -4.0,  77,   1.0,   1.6,   2.9,   0.0,  0.00, 
 08/01/11, 01:00,  -4.1,  76,   1.0,   1.6,   2.9,   0.0,  0.00, 
 08/01/11, 02:00,  -4.0,  78,   1.0,   1.6,   2.9,   0.0,  0.00, 
 08/01/11, 03:00,  -4.1,  75,   1.0,   1.6,   2.9,   0.0,  0.00, 
 08/01/11, 04:00,  -3.6,  71,   1.0,   1.6,   2.9,   0.0,  0.00, 
 08/01/11, 05:00,  -3.4,  69,   1.0,   1.6,   2.9,   0.0,  0.00, 
 08/01/11, 06:00,  -3.0,  79,   1.0,   1.6,   2.9,   0.0,  0.00, 
 08/01/11, 07:00,  -2.8,  78,   1.0,   1.6,   2.9,   0.0,  0.00, 
 08/01/11, 08:00,  -2.0,  71,   0.9,   1.6,   2.9,   0.0,  0.07, 
 08/01/11, 09:00,   1.3,  60,   0.9,   1.6,   2.9,   0.0,  0.30, 
 08/01/11, 10:00,   4.0,  46,   1.0,   1.6,   2.9,   0.0,  0.43, 
 08/01/11, 11:00,   6.2,  40,   0.9,   1.6,   2.9,   0.0,  0.98, 
 08/01/11, 12:00,   5.6,  41,   1.0,   1.6,   2.9,   0.0,  1.46, 
 08/01/11, 13:00,   5.7,  50,   0.9,   1.6,   2.9,   0.0,  1.14, 
 08/01/11, 14:00,   6.2,  53,   1.0,   1.6,   2.9,   0.0,  0.97, 
 08/01/11, 15:00,   5.6,  55,   1.0,   1.6,   2.9,   0.0,  0.23, 
 08/01/11, 16:00,   5.4,  57,   0.9,   1.6,   2.9,   0.0,  0.03, 
 08/01/11, 17:00,   4.5,  60,   0.9,   1.6,   2.9,   0.0,  0.00, 
 08/01/11, 18:00,   3.0,  90,   0.9,   1.6,   2.9,   0.0,  0.00, 
 08/01/11, 19:00,   3.9,  97,   0.9,   1.6,   2.9,   1.0,  0.00, 
 08/01/11, 20:00,   4.0,  99,   0.9,   1.6,   2.9,   1.5,  0.00, 
 08/01/11, 21:00,   5.2,  99,   0.9,   1.6,   2.9,   0.5,  0.00, 
 08/01/11, 22:00,   4.9,  99,   0.9,   1.6,   2.9,   0.5,  0.00, 
 08/01/11, 23:00,   5.4,  99,   0.9,   1.6,   2.9,   0.0,  0.00, 
 08/01/12, 00:00,   5.2,  99,   0.9,   1.6,   2.9,   0.5,  0.00, 
 08/01/12, 01:00,   5.3,  99,   1.0,   1.6,   2.9,   1.0,  0.00, 
 08/01/12, 02:00,   5.4,  99,   0.9,   1.6,   2.9,   1.0,  0.00, 
 08/01/12, 03:00,   6.0,  99,   1.0,   1.6,   2.9,   1.0,  0.00, 
 08/01/12, 04:00,   6.2,  99,   1.0,   1.6,   2.9,   0.5,  0.00, 
 08/01/12, 05:00,   6.2,  99,   1.0,   1.6,   2.9,   0.5,  0.00, 
 08/01/12, 06:00,   6.5,  99,   1.0,   1.6,   2.9,   1.0,  0.00, 
 08/01/12, 07:00,   6.5,  99,   1.0,   1.6,   2.8,   0.0,  0.00, 
 08/01/12, 08:00,   2.1,  99,   1.0,   1.6,   2.8,   3.0,  0.00, 
 08/01/12, 09:00,   1.7,  99,   1.0,   1.6,   2.8,   1.5,  0.10, 
 08/01/12, 10:00,  -0.6,  99,   1.0,   1.6,   2.8,   1.0,  0.14, 
 08/01/12, 11:00,  -0.6,  99,   1.0,   1.6,   2.8,   1.5,  0.14, 
 08/01/12, 12:00,  -1.0,  99,   1.0,   1.6,   2.8,   2.5,  0.20, 
 08/01/12, 13:00,  -1.6,  99,   1.0,   1.6,   2.8,   3.5,  0.17, 
 08/01/12, 14:00,  -2.1,  99,   1.0,   1.6,   2.8,   1.0,  0.29, 
 08/01/12, 15:00,  -2.9,  98,   0.9,   1.6,   2.8,   0.5,  0.31, 
 08/01/12, 16:00,  -2.9,  98,   0.9,   1.6,   2.8,   0.0,  0.17, 
 08/01/12, 17:00,  -3.7,  98,   0.9,   1.6,   2.7,   0.0,  0.08, 
 08/01/12, 18:00,  -3.9,  98,   0.9,   1.6,   2.7,   0.5,  0.00, 
 08/01/12, 19:00,  -4.1,  97,   0.9,   1.6,   2.7,   0.0,  0.00, 
 08/01/12, 20:00,  -3.8,  94,   0.9,   1.6,   2.7,   0.0,  0.00, 
 08/01/12, 21:00,  -4.5,  97,   0.9,   1.5,   2.7,   0.0,  0.00, 
 08/01/12, 22:00,  -5.3,  93,   0.9,   1.5,   2.7,   0.0,  0.00, 
 08/01/12, 23:00,  -5.6,  94,   0.9,   1.5,   2.7,   0.0,  0.00, 
 08/01/13, 00:00,  -6.3,  94,   0.9,   1.5,   2.7,   0.0,  0.00, 
 08/01/13, 01:00,  -7.6,  91,   0.9,   1.5,   2.7,   0.0,  0.00, 
 08/01/13, 02:00,  -8.3,  93,   0.9,   1.5,   2.7,   0.0,  0.00, 
 08/01/13, 03:00,  -8.9,  91,   0.9,   1.5,   2.6,   0.0,  0.00, 
 08/01/13, 04:00,  -9.0,  94,   0.9,   1.5,   2.7,   0.0,  0.00, 
 08/01/13, 05:00,  -9.3,  91,   0.9,   1.5,   2.6,   0.0,  0.00, 
 08/01/13, 06:00,  -9.4,  93,   0.8,   1.5,   2.7,   0.5,  0.00, 
 08/01/13, 07:00,  -9.6,  88,   0.8,   1.5,   2.7,   0.0,  0.00, 
 08/01/13, 08:00,  -9.6,  86,   0.8,   1.5,   2.7,   0.0,  0.05, 
 08/01/13, 09:00,  -8.3,  89,   0.8,   1.5,   2.7,   0.0,  0.41, 
 08/01/13, 10:00,  -7.9,  85,   0.8,   1.5,   2.7,   0.0,  0.88, 
 08/01/13, 11:00,  -7.6,  78,   0.8,   1.5,   2.7,   0.0,  1.34, 
 08/01/13, 12:00,  -7.1,  78,   0.8,   1.5,   2.7,   0.0,  1.43, 
 08/01/13, 13:00,  -7.2,  80,   0.8,   1.5,   2.7,   0.0,  1.79, 
 08/01/13, 14:00,  -7.3,  78,   0.8,   1.5,   2.7,   0.0,  1.53, 
 08/01/13, 15:00,  -8.0,  79,   0.8,   1.5,   2.7,   0.0,  1.09, 
 08/01/13, 16:00,  -8.3,  83,   0.8,   1.5,   2.6,   0.0,  0.60, 
 08/01/13, 17:00,  -9.5,  86,   0.8,   1.5,   2.7,   0.0,  0.18, 
 08/01/13, 18:00, -10.5,  79,   0.7,   1.4,   2.7,   0.0,  0.00, 
 08/01/13, 19:00, -10.9,  85,   0.7,   1.4,   2.7,   0.5,  0.00, 
 08/01/13, 20:00, -11.1,  83,   0.7,   1.4,   2.7,   0.0,  0.00, 
 08/01/13, 21:00, -11.2,  80,   0.7,   1.4,   2.6,   0.0,  0.00, 
 08/01/13, 22:00, -10.9,  75,   0.7,   1.3,   2.6,   0.0,  0.00, 
 08/01/13, 23:00, -11.0,  75,   0.7,   1.4,   2.6,   0.0,  0.00, 
 08/01/14, 00:00, -10.7,  72,   0.7,   1.4,   2.7,   0.0,  0.00, 
 08/01/14, 01:00, -11.8,  81,   0.7,   1.3,   2.6,   0.0,  0.00, 
 08/01/14, 02:00, -12.1,  81,   0.7,   1.4,   2.7,   0.0,  0.00, 
 08/01/14, 03:00, -11.8,  84,   0.7,   1.4,   2.6,   0.0,  0.00, 
 08/01/14, 04:00, -11.1,  85,   0.6,   1.4,   2.7,   0.0,  0.00, 
 08/01/14, 05:00, -11.6,  84,   0.6,   1.4,   2.7,   0.0,  0.00, 
 08/01/14, 06:00, -11.8,  86,   0.6,   1.3,   2.6,   0.0,  0.00, 
 08/01/14, 07:00, -12.2,  88,   0.6,   1.3,   2.6,   0.0,  0.00, 
 08/01/14, 08:00, -12.0,  87,   0.6,   1.4,   2.7,   0.0,  0.05, 
 08/01/14, 09:00, -10.4,  84,   0.6,   1.4,   2.6,   0.0,  0.30, 
 08/01/14, 10:00,  -9.5,  85,   0.6,   1.4,   2.6,   0.0,  0.65, 
 08/01/14, 11:00,  -8.2,  83,   0.6,   1.3,   2.6,   0.0,  1.16, 
 08/01/14, 12:00,  -7.8,  79,   0.6,   1.4,   2.7,   0.0,  2.11, 
 08/01/14, 13:00,  -7.1,  81,   0.6,   1.3,   2.5,   0.0,  1.45, 
 08/01/14, 14:00,  -6.6,  78,   0.6,   1.4,   2.5,   0.0,  1.33, 
 08/01/14, 15:00,  -6.9,  82,   0.6,   1.2,   2.5,   0.0,  0.80, 
 08/01/14, 16:00,  -7.2,  87,   0.6,   1.3,   2.6,   0.0,  0.31, 
 08/01/14, 17:00,  -7.9,  90,   0.6,   1.3,   2.5,   0.0,  0.06, 
 08/01/14, 18:00,  -8.3,  91,   0.6,   1.3,   2.5,   0.0,  0.00, 
 08/01/14, 19:00,  -8.7,  94,   0.5,   1.3,   2.5,   0.0,  0.00, 
 08/01/14, 20:00,  -8.8,  93,   0.5,   1.3,   2.6,   0.0,  0.00, 
 08/01/14, 21:00,  -9.4,  93,   0.5,   1.2,   2.5,   0.0,  0.00, 
 08/01/14, 22:00,  -9.8,  89,   0.5,   1.2,   2.5,   0.0,  0.00, 
 08/01/14, 23:00,  -9.9,  90,   0.5,   1.3,   2.5,   0.0,  0.00, 
 08/01/15, 00:00, -11.4,  91,   0.5,   1.2,   2.5,   0.0,  0.00, 
 08/01/15, 01:00, -12.0,  92,   0.5,   1.2,   2.5,   0.0,  0.00, 
 08/01/15, 02:00, -11.6,  85,   0.5,   1.2,   2.5,   0.0,  0.00, 
 08/01/15, 03:00, -13.1,  87,   0.5,   1.2,   2.5,   0.0,  0.00, 
 08/01/15, 04:00, -12.9,  86,   0.5,   1.2,   2.5,   0.0,  0.00, 
 08/01/15, 05:00, -12.5,  86,   0.5,   1.2,   2.5,   0.0,  0.00, 
 08/01/15, 06:00, -12.7,  83,   0.5,   1.2,   2.5,   0.0,  0.00, 
 08/01/15, 07:00, -13.0,  83,   0.5,   1.2,   2.5,   0.0,  0.00, 
 08/01/15, 08:00, -13.1,  87,   0.5,   1.2,   2.5,   0.0,  0.05, 
 08/01/15, 09:00,  -8.9,  99,   0.5,   1.2,   2.5,   0.0,  0.77, 
 08/01/15, 10:00,  -7.3,  88,   0.5,   1.2,   2.5,   0.0,  1.23, 
 08/01/15, 11:00,  -6.2,  83,   0.5,   1.3,   2.6,   0.0,  1.56, 
 08/01/15, 12:00,  -4.8,  76,   0.6,   1.3,   2.6,   0.0,  1.99, 
 08/01/15, 13:00,  -4.2,  70,   0.6,   1.3,   2.6,   0.0,  2.16, 
 08/01/15, 14:00,  -2.7,  70,   0.6,   1.2,   2.6,   0.0,  1.84, 
 08/01/15, 15:00,  -2.4,  60,   0.6,   1.2,   2.6,   0.0,  0.92, 
 08/01/15, 16:00,  -2.9,  58,   0.6,   1.2,   2.6,   0.0,  0.53, 
 08/01/15, 17:00,  -3.5,  54,   0.6,   1.2,   2.6,   0.0,  0.10, 
 08/01/15, 18:00,  -5.0,  66,   0.6,   1.2,   2.6,   0.0,  0.00, 
 08/01/15, 19:00,  -5.7,  65,   0.6,   1.2,   2.6,   0.0,  0.00, 
 08/01/15, 20:00,  -5.3,  65,   0.5,   1.2,   2.6,   0.0,  0.00, 
 08/01/15, 21:00,  -4.6,  54,   0.5,   1.2,   2.6,   0.0,  0.00, 
 08/01/15, 22:00,  -4.5,  56,   0.5,   1.2,   2.6,   0.0,  0.00, 
 08/01/15, 23:00,  -4.3,  53,   0.5,   1.2,   2.6,   0.0,  0.00, 
 08/01/16, 00:00,  -4.4,  65,   0.5,   1.2,   2.6,   0.0,  0.00, 
 08/01/16, 01:00,  -3.9,  65,   0.4,   1.2,   2.6,   0.0,  0.00, 